Terminal Aerodrome Forecast
Issued by NWS

Home | Current Version | Previous Version | Text Only | Print | Product List | Glossary On
Versions: 1 2 3 4 5 6 7 8 9 10 11 12
000
FTUS42 TJSJ 271100
TAFKPK
TAF
TKPK 271122Z 2712/2812 08007KT P6SM FEW021
     FM271300 11013KT P6SM SCT022
     FM272300 10009KT P6SM FEW020=

USA.gov is the U.S. government's official web portal to all federal, state and local government web resources and services.